Showing default

PEARL-1B, 68980

Orbit data source: Space-Track

PEARL-1B, 68980 is a Taiwanese payload satellite in SSO that was launched on Sun, 03 May 2026 UTC via an FALCON 9 launch vehicle from the Air Force Western Test Range (AFWTR). Payload-class satellites include a variety of spacecraft equipped with specific instruments for various scientific and technological missions. These include communications satellites like Starlink; space stations such as the ISS; scientific satellites like the Hubble; Earth observation satellites from companies like Planet Labs, Umbra, and HawkEye 360; GPS; miniature CubeSats for education and research; and military/defense satellites.

Loading next visibility...
Identifier
68980, 2026-100A
Orbit
SSO
Country
Flag of TWTW / TWN
Related business
Manufacturer
Endurosat
Mission
Operational Commercial Communications
Bus & Motor
CUBESAT 6UXL, Unknown motor
Mass
8.8 kg wet, 8.8 kg dry
Launch date (UTC)
2026-05-03 (5 months ago)
Launch vehicle
FALCON 9
Launch site
Air Force Western Test Range (AFWTR)
Object type
Payload
Rocket body
Debris
Shape & HBR
Box + 2 Pan, 0.2 m
Radar Cross Section
0.080 m², Medium (>0.1 m² and < 1m²)

Expand to show TLE details & history
Last TLE update: 7 hours ago

TLE from 7 hours ago
0 PEARL-1B
1 68980U 26100A   26266.17691904  .00001328  00000-0  14022-3 0  9995
2 68980  97.7227 161.4973 0007112 170.1495 189.9864 14.90885895 21281
Epoch: 2026-09-23T04:14Z
TLE epoch observation values (Epoch: 2026-09-23T04:14:45.805Z)
Latitude
-0.00001°
Longitude
95.77465°
Altitude
603.099 km
Speed
7.555 km/s
True Right ascension
10h 45m 59s
True Declination
0° 00' 00"
Sunlit
Object was in daylight at epoch
Visualization orbit readout
Latitude
Unknown
Longitude
Unknown
Altitude
Unknown
Speed
Unknown
Apparent Right ascension
Unknown
Apparent Declination
Unknown
Sunlit
N/A
Visualization observer readout
Local Sidereal Time
04:08:36
Azimuth
Unknown
Elevation
Unknown
Doppler factor
Unknown
Orbital elements
Apogee altitude
597.148 km
Perigee altitude
587.233 km
Semi-major axis
6,970.327 km
Eccentricity
0.00071
Inclination
97.7227°
RAAN
161.4973°
Arg. of periapsis
170.1495°
True anomaly
189.97228°
Mean anomaly
189.9864°
Eccentric anomaly
189.97934°
Mean motion
3.72961 °/min
Orbital period
96.52 mins
BSTAR
0.00014022
Loading maneuver chart data...
Computing Atmospheric mass density...
Loading historical data...
Loading historical data...
Loading historical data...
Loading historical data...
Loading historical data...
Loading historical data...
Loading historical data...

Documentation

Showing up to 5 results
|